Weather History for Howell, MI

Change the Weather History Date:

Thursday, March 15, 2012

  Actual Average Record
Temperature  
Mean Temperature 66 °F -  
Max Temperature 76 °F 41 °F 76 °F (2012)
Min Temperature 55 °F 24 °F 15 °F (1997)
Growing Degree Days 16 (Base 50)    
Moisture  
Dew Point 55 °F    
Average Humidity 71    
Maximum Humidity 87    
Minimum Humidity 56    
Precipitation  
Precipitation 0.00 in - - ()
Sea Level Pressure  
Sea Level Pressure 30.00 in    
Wind  
Wind Speed 6 mph (South)    
Max Wind Speed 12 mph    
Max Gust Speed 18 mph    
Visibility 9 miles    
Events Rain    
Averages and records for this station are not official NWS values.
T = Trace of Precipitation, MM = Missing Value Source: NWS Daily Summary

Daily Weather History Graph

Daily Weather History Graph

Search for Another Location

Airport:

Trip Planner

Search our weather history database for the weather conditions in past years. The results will help you decide how hot, cold, wet, or windy it might be!

Date:

Astronomy

Mar. 15, 2012 Rise Set
Actual Time 7:47 AM EDT 7:42 PM EDT
Civil Twilight 7:19 AM EDT 8:11 PM EDT
Nautical Twilight 6:46 AM EDT 8:43 PM EDT
Astronomical Twilight 6:12 AM EDT 9:17 PM EDT
Moon 3:21 AM EDT (3/15) 12:51 PM EDT (3/15)
Length of Visible Light 12h 52m
Length of Day
11h 55m
Last Quarter, 43% of the Moon is Illuminated
Mar 15
Last Quarter
Mar 22
New
Mar 30
First Quarter
Apr 6
Full
Apr 13
Last Quarter

Hourly Weather History & Observations

Time (EDT) Temp. Dew Point Humidity Pressure Visibility Wind Dir Wind Speed Gust Speed Precip Events Conditions
12:14 AM 63.9 °F 49.8 °F 60% 30.02 in 10.0 mi South 6.9 mph - N/A   Clear
12:35 AM 63.7 °F 50.0 °F 61% 30.01 in 10.0 mi South 5.8 mph - N/A   Clear
12:54 AM 63.3 °F 50.2 °F 62% 30.01 in 10.0 mi South 5.8 mph - N/A   Clear
1:15 AM 63.0 °F 50.2 °F 63% 30.01 in 10.0 mi South 6.9 mph - N/A   Clear
1:35 AM 63.5 °F 50.5 °F 63% 30.01 in 10.0 mi South 8.1 mph - N/A   Clear
1:54 AM 63.1 °F 50.5 °F 63% 30.01 in 7.0 mi South 6.9 mph - N/A   Clear
2:14 AM 62.8 °F 50.7 °F 65% 30.00 in 10.0 mi South 5.8 mph - N/A   Clear
2:35 AM 62.1 °F 50.9 °F 67% 30.00 in 10.0 mi South 5.8 mph - N/A   Clear
2:54 AM 62.1 °F 50.9 °F 67% 30.00 in 10.0 mi SSW 4.6 mph - N/A   Clear
3:15 AM 62.1 °F 51.3 °F 68% 30.00 in 10.0 mi SSW 5.8 mph - N/A   Clear
3:35 AM 61.9 °F 51.3 °F 68% 29.99 in 10.0 mi South 3.5 mph - N/A   Clear
3:54 AM 61.5 °F 51.4 °F 69% 29.99 in 10.0 mi South 4.6 mph - N/A   Scattered Clouds
4:15 AM 61.2 °F 51.4 °F 70% 29.99 in 10.0 mi South 3.5 mph - N/A   Clear
4:34 AM 60.8 °F 51.8 °F 72% 29.98 in 10.0 mi South 3.5 mph - N/A   Clear
4:54 AM 61.3 °F 52.2 °F 72% 29.98 in 10.0 mi SSW 5.8 mph - N/A   Mostly Cloudy
5:15 AM 61.0 °F 52.0 °F 72% 29.98 in 10.0 mi South 5.8 mph - N/A   Scattered Clouds
5:34 AM 60.4 °F 52.2 °F 74% 29.99 in 10.0 mi South 5.8 mph - N/A   Clear
5:54 AM 60.1 °F 52.5 °F 76% 29.98 in 10.0 mi South 4.6 mph - N/A   Clear
6:14 AM 55.8 °F 50.9 °F 84% 29.99 in 10.0 mi SSW 3.5 mph - N/A   Clear
6:34 AM 58.8 °F 52.5 °F 80% 29.99 in 10.0 mi Calm Calm - N/A   Clear
6:55 AM 59.0 °F 53.1 °F 81% 29.99 in 10.0 mi South 3.5 mph - N/A   Clear
7:14 AM 57.4 °F 51.6 °F 81% 29.99 in 10.0 mi Calm Calm - N/A   Clear
7:34 AM 57.9 °F 53.4 °F 85% 30.01 in 10.0 mi SSW 3.5 mph - N/A   Clear
7:55 AM 58.6 °F 53.6 °F 83% 30.00 in 7.0 mi Calm Calm - N/A   Clear
8:14 AM 58.3 °F 54.5 °F 87% 30.01 in 7.0 mi South 3.5 mph - N/A   Clear
8:35 AM 59.9 °F 55.0 °F 84% 30.01 in 7.0 mi South 3.5 mph - N/A   Clear
8:55 AM 60.8 °F 55.4 °F 82% 30.01 in 7.0 mi Calm Calm - N/A   Clear
9:14 AM 61.0 °F 55.6 °F 82% 30.02 in 7.0 mi SSW 3.5 mph - N/A   Clear
9:35 AM 61.7 °F 55.9 °F 81% 30.02 in 7.0 mi SSW 4.6 mph - N/A   Clear
9:54 AM 61.5 °F 55.6 °F 81% 30.02 in 7.0 mi South 5.8 mph - N/A   Clear
10:14 AM 63.3 °F 56.1 °F 77% 30.02 in 7.0 mi SSW 6.9 mph - N/A   Clear
10:34 AM 64.9 °F 56.8 °F 75% 30.02 in 10.0 mi SSW 6.9 mph - N/A   Clear
10:54 AM 67.3 °F 58.3 °F 73% 30.02 in 10.0 mi SW 8.1 mph - N/A   Clear
11:14 AM 69.1 °F 58.8 °F 70% 30.02 in 10.0 mi WSW 5.8 mph - N/A   Clear
11:34 AM 70.2 °F 59.2 °F 68% 30.02 in 10.0 mi SW 5.8 mph 9.2 mph N/A   Clear
11:54 AM 70.7 °F 59.0 °F 66% 30.02 in 10.0 mi SSW 6.9 mph - N/A   Clear
12:14 PM 72.0 °F 59.4 °F 64% 30.02 in 10.0 mi South 5.8 mph - N/A   Clear
12:35 PM 71.1 °F 59.0 °F 66% 30.01 in 10.0 mi South 5.8 mph - N/A   Mostly Cloudy
12:54 PM 70.9 °F 58.5 °F 65% 30.00 in 10.0 mi SE 8.1 mph - N/A   Overcast
1:14 PM 71.8 °F 58.1 °F 62% 30.00 in 10.0 mi SE 10.4 mph - N/A   Mostly Cloudy
1:35 PM 71.2 °F 58.5 °F 64% 30.00 in 10.0 mi South 9.2 mph - N/A   Overcast
1:54 PM 71.1 °F 58.6 °F 65% 29.99 in 10.0 mi SE 10.4 mph - N/A   Mostly Cloudy
2:14 PM 73.6 °F 59.0 °F 60% 29.99 in 10.0 mi SSE 9.2 mph - N/A   Scattered Clouds
2:35 PM 74.5 °F 59.4 °F 59% 29.98 in 10.0 mi South 10.4 mph 16.1 mph N/A   Clear
2:54 PM 74.8 °F 59.5 °F 59% 29.97 in 10.0 mi South 10.4 mph - N/A   Scattered Clouds
3:15 PM 76.3 °F 59.5 °F 56% 29.97 in 10.0 mi SSW 11.5 mph 18.4 mph N/A   Scattered Clouds
3:34 PM 75.0 °F 59.7 °F 59% 29.97 in 10.0 mi South 11.5 mph - N/A   Scattered Clouds
3:54 PM 73.8 °F 59.9 °F 62% 29.96 in 10.0 mi SSE 5.8 mph - N/A   Scattered Clouds
4:15 PM 73.8 °F 59.4 °F 61% 29.96 in 10.0 mi South 8.1 mph - N/A   Scattered Clouds
4:34 PM 68.7 °F 59.2 °F 72% 29.96 in 2.0 mi Calm Calm - N/A Rain Light Rain
4:55 PM 68.0 °F 63.0 °F 84% 29.95 in 7.0 mi South 5.8 mph - N/A Rain Light Rain
5:14 PM 67.8 °F 62.8 °F 84% 29.97 in 7.0 mi South 8.1 mph - N/A   Scattered Clouds
5:34 PM 67.6 °F 61.2 °F 80% 29.94 in 10.0 mi South 6.9 mph - N/A   Scattered Clouds
5:55 PM 66.4 °F 58.1 °F 75% 29.95 in 10.0 mi SSE 10.4 mph - N/A   Scattered Clouds
6:14 PM 66.6 °F 56.8 °F 71% 29.94 in 10.0 mi SSE 10.4 mph - N/A   Mostly Cloudy
6:34 PM 66.7 °F 57.4 °F 72% 29.95 in 10.0 mi South 6.9 mph - N/A   Overcast
6:55 PM 66.4 °F 59.9 °F 80% 29.96 in 10.0 mi South 5.8 mph - N/A   Overcast
7:14 PM 66.9 °F 59.9 °F 78% 29.96 in 10.0 mi SSW 3.5 mph - N/A   Scattered Clouds
7:34 PM 66.2 °F 59.4 °F 79% 29.98 in 10.0 mi South 4.6 mph - N/A   Scattered Clouds
7:54 PM 65.5 °F 56.3 °F 72% 29.97 in 10.0 mi South 5.8 mph - N/A   Scattered Clouds
8:15 PM 63.9 °F 54.9 °F 72% 29.98 in 10.0 mi South 6.9 mph - N/A   Scattered Clouds
8:34 PM 63.0 °F 54.1 °F 73% 29.98 in 10.0 mi Calm Calm - N/A   Scattered Clouds
8:55 PM 61.3 °F 53.8 °F 76% 29.98 in 10.0 mi SSW 4.6 mph - N/A   Clear
9:14 PM 61.2 °F 53.8 °F 77% 30.00 in 10.0 mi SSW 4.6 mph - N/A   Scattered Clouds
9:35 PM 60.4 °F 53.8 °F 79% 30.00 in 10.0 mi WSW 4.6 mph - N/A   Mostly Cloudy
9:54 PM 60.8 °F 53.4 °F 77% 30.01 in 10.0 mi West 4.6 mph - N/A   Scattered Clouds
10:14 PM 60.1 °F 53.6 °F 79% 30.01 in 10.0 mi SW 4.6 mph - N/A   Clear
10:35 PM 58.1 °F 53.1 °F 83% 30.02 in 10.0 mi South 3.5 mph - N/A   Clear
10:54 PM 59.4 °F 54.0 °F 82% 30.02 in 10.0 mi SSW 3.5 mph - N/A   Clear
11:14 PM 59.5 °F 54.5 °F 83% 30.01 in 10.0 mi SSW 4.6 mph - N/A   Clear
11:35 PM 58.6 °F 54.0 °F 84% 30.01 in 10.0 mi Calm Calm - N/A   Clear
11:54 PM 55.4 °F 52.5 °F 90% 30.01 in 10.0 mi Calm Calm - N/A   Clear